SWA447 KBNA-KBHM

Flight info

Callsign SWA447
Flight time 0h 30m
Altitude 22000
Route FLAME4 GENDE NULLS
Aircraft B737/M-SADE2E3GIJ4RWZ/LB1D1

Departure

Time 2026-04-23 22:17
Airport Nashville International Airport (KBNA)

Arrival

Time 2026-04-23 22:47
Airport Birmingham-Shuttlesworth International Airport (KBHM)
Time Latitude Longitude Altitude Speed Heading
2026-04-23 22:05 36.12904 -86.66720 592 ft 0 kts 40°
2026-04-23 22:10 36.12897 -86.66727 575 ft 2 kts 40°
2026-04-23 22:10 36.12885 -86.66740 575 ft 2 kts 40°
2026-04-23 22:10 36.12872 -86.66754 576 ft 2 kts 40°
2026-04-23 22:11 36.12860 -86.66767 574 ft 2 kts 40°
2026-04-23 22:11 36.12854 -86.66773 574 ft 0 kts 40°
2026-04-23 22:12 36.12854 -86.66771 574 ft 1 kts 58°
2026-04-23 22:12 36.12832 -86.66749 574 ft 12 kts 151°
2026-04-23 22:12 36.12715 -86.66774 579 ft 19 kts 214°
2026-04-23 22:12 36.12611 -86.66866 574 ft 18 kts 210°
2026-04-23 22:13 36.12505 -86.66942 574 ft 17 kts 209°
2026-04-23 22:13 36.12406 -86.66900 574 ft 17 kts 134°
2026-04-23 22:13 36.12345 -86.66783 574 ft 17 kts 112°
2026-04-23 22:13 36.12299 -86.66618 578 ft 21 kts 106°
2026-04-23 22:14 36.12319 -86.66492 575 ft 16 kts 22°
2026-04-23 22:14 36.12479 -86.66427 573 ft 26 kts 17°
2026-04-23 22:14 36.12646 -86.66363 574 ft 24 kts 18°
2026-04-23 22:14 36.12800 -86.66299 574 ft 23 kts 18°
2026-04-23 22:15 36.12949 -86.66240 574 ft 22 kts 17°
2026-04-23 22:15 36.13094 -86.66184 576 ft 22 kts 17°
2026-04-23 22:15 36.13234 -86.66130 576 ft 21 kts 17°
2026-04-23 22:15 36.13286 -86.66030 575 ft 15 kts 108°
2026-04-23 22:16 36.13184 -86.66001 572 ft 36 kts 198°
2026-04-23 22:16 36.12697 -86.66197 574 ft 108 kts 198°
2026-04-23 22:16 36.12138 -86.66417 595 ft 144 kts 198°
2026-04-23 22:16 36.11072 -86.66827 992 ft 169 kts 196°
2026-04-23 22:17 36.09640 -86.67377 2356 ft 159 kts 201°
2026-04-23 22:17 36.08925 -86.67724 2652 ft 178 kts 202°
2026-04-23 22:17 36.07672 -86.68353 2931 ft 211 kts 202°
2026-04-23 22:17 36.06244 -86.69067 3318 ft 237 kts 202°
2026-04-23 22:18 36.04648 -86.69856 4003 ft 250 kts 201°
2026-04-23 22:18 36.03020 -86.70651 5005 ft 253 kts 201°
2026-04-23 22:18 36.01372 -86.71453 5986 ft 257 kts 201°
2026-04-23 22:18 35.99693 -86.72268 6906 ft 262 kts 201°
2026-04-23 22:19 35.97984 -86.73094 7906 ft 265 kts 201°
2026-04-23 22:19 35.96257 -86.73927 8930 ft 269 kts 202°
2026-04-23 22:19 35.94483 -86.74720 9929 ft 274 kts 193°
2026-04-23 22:19 35.92549 -86.75017 10600 ft 291 kts 185°
2026-04-23 22:20 35.90415 -86.75168 10842 ft 322 kts 184°
2026-04-23 22:20 35.88118 -86.75295 11453 ft 336 kts 184°
2026-04-23 22:20 35.85755 -86.75426 12307 ft 343 kts 183°
2026-04-23 22:20 35.83348 -86.75569 13149 ft 350 kts 183°
2026-04-23 22:21 35.80887 -86.75725 13953 ft 358 kts 184°
2026-04-23 22:21 35.78380 -86.75892 14733 ft 364 kts 184°
2026-04-23 22:21 35.75830 -86.76068 15566 ft 370 kts 184°
2026-04-23 22:21 35.73280 -86.76246 16397 ft 375 kts 184°
2026-04-23 22:22 35.70655 -86.76430 17204 ft 381 kts 184°
2026-04-23 22:22 35.67985 -86.76618 18008 ft 387 kts 184°
2026-04-23 22:22 35.65267 -86.76809 18699 ft 394 kts 185°
2026-04-23 22:22 35.62510 -86.77002 19399 ft 399 kts 185°
2026-04-23 22:23 35.59723 -86.77197 20138 ft 403 kts 185°
2026-04-23 22:23 35.56910 -86.77394 20858 ft 407 kts 185°
2026-04-23 22:23 35.54071 -86.77593 21539 ft 411 kts 185°
2026-04-23 22:23 35.51193 -86.77789 21977 ft 415 kts 184°
2026-04-23 22:24 35.48282 -86.77985 22014 ft 422 kts 184°
2026-04-23 22:24 35.45354 -86.78181 22017 ft 421 kts 184°
2026-04-23 22:24 35.42430 -86.78377 22025 ft 421 kts 184°
2026-04-23 22:24 35.39545 -86.78571 22027 ft 421 kts 184°
2026-04-23 22:25 35.36614 -86.78768 22025 ft 421 kts 184°
2026-04-23 22:25 35.33690 -86.78964 22016 ft 421 kts 184°
2026-04-23 22:25 35.30765 -86.79161 22024 ft 421 kts 184°
2026-04-23 22:25 35.27836 -86.79357 22027 ft 421 kts 184°
2026-04-23 22:26 35.24906 -86.79553 22024 ft 422 kts 184°
2026-04-23 22:26 35.21977 -86.79749 22020 ft 422 kts 184°
2026-04-23 22:26 35.19048 -86.79945 22018 ft 421 kts 184°
2026-04-23 22:26 35.16119 -86.80141 22020 ft 421 kts 184°
2026-04-23 22:27 35.13193 -86.80336 22021 ft 421 kts 184°
2026-04-23 22:27 35.10270 -86.80532 22035 ft 421 kts 184°
2026-04-23 22:27 35.07338 -86.80727 22041 ft 421 kts 184°
2026-04-23 22:27 35.04413 -86.80922 22036 ft 421 kts 184°
2026-04-23 22:28 35.01485 -86.81117 22035 ft 421 kts 184°
2026-04-23 22:28 34.98552 -86.81313 22038 ft 421 kts 184°
2026-04-23 22:28 34.95626 -86.81508 22036 ft 421 kts 184°
2026-04-23 22:28 34.92698 -86.81703 22036 ft 421 kts 184°
2026-04-23 22:29 34.89767 -86.81898 22036 ft 422 kts 184°
2026-04-23 22:29 34.86839 -86.82092 22034 ft 421 kts 184°
2026-04-23 22:29 34.83908 -86.82287 22022 ft 421 kts 184°
2026-04-23 22:29 34.80984 -86.82482 22022 ft 421 kts 184°
2026-04-23 22:30 34.78060 -86.82779 22033 ft 421 kts 187°
2026-04-23 22:30 34.75185 -86.83188 22037 ft 421 kts 188°
2026-04-23 22:30 34.72280 -86.83648 22039 ft 421 kts 188°
2026-04-23 22:30 34.69342 -86.84122 22035 ft 421 kts 188°
2026-04-23 22:31 34.66480 -86.84576 22027 ft 416 kts 188°
2026-04-23 22:31 34.63638 -86.85015 22025 ft 407 kts 188°
2026-04-23 22:31 34.60842 -86.85438 22034 ft 405 kts 188°
2026-04-23 22:31 34.58038 -86.85857 22042 ft 406 kts 188°
2026-04-23 22:32 34.55237 -86.86273 21861 ft 408 kts 188°
2026-04-23 22:32 34.52386 -86.86695 21146 ft 413 kts 188°
2026-04-23 22:32 34.49556 -86.87113 20533 ft 407 kts 188°
2026-04-23 22:32 34.46755 -86.87525 19916 ft 403 kts 188°
2026-04-23 22:33 34.43987 -86.87932 19314 ft 399 kts 188°
2026-04-23 22:33 34.41243 -86.88336 18687 ft 396 kts 188°
2026-04-23 22:33 34.38522 -86.88738 18130 ft 391 kts 188°
2026-04-23 22:33 34.35862 -86.89128 17535 ft 384 kts 188°
2026-04-23 22:34 34.33198 -86.89520 16768 ft 385 kts 188°
2026-04-23 22:34 34.30549 -86.89910 16110 ft 382 kts 188°
2026-04-23 22:34 34.27922 -86.90296 15501 ft 378 kts 188°
2026-04-23 22:34 34.25323 -86.90678 14898 ft 374 kts 187°
2026-04-23 22:35 34.22749 -86.91056 14297 ft 371 kts 187°
2026-04-23 22:35 34.20191 -86.91431 13647 ft 369 kts 187°
2026-04-23 22:35 34.17662 -86.91801 13000 ft 364 kts 187°
2026-04-23 22:35 34.15191 -86.92163 12392 ft 349 kts 187°
2026-04-23 22:36 34.12837 -86.92507 11832 ft 334 kts 187°
2026-04-23 22:36 34.10579 -86.92838 11307 ft 320 kts 187°
2026-04-23 22:36 34.08402 -86.93156 10781 ft 309 kts 187°
2026-04-23 22:36 34.06331 -86.93458 10422 ft 295 kts 187°
2026-04-23 22:37 34.04364 -86.93422 10291 ft 275 kts 169°
2026-04-23 22:37 34.02604 -86.92649 10214 ft 269 kts 152°
2026-04-23 22:37 34.01025 -86.91442 10136 ft 270 kts 147°
2026-04-23 22:37 33.99481 -86.90158 10017 ft 267 kts 146°
2026-04-23 22:38 33.97970 -86.88882 9684 ft 265 kts 146°
2026-04-23 22:38 33.96455 -86.87607 9331 ft 264 kts 146°
2026-04-23 22:38 33.94953 -86.86349 8983 ft 262 kts 147°
2026-04-23 22:38 33.93455 -86.85099 8635 ft 262 kts 147°
2026-04-23 22:39 33.91958 -86.83853 8287 ft 261 kts 147°
2026-04-23 22:39 33.90463 -86.82613 7928 ft 261 kts 147°
2026-04-23 22:39 33.88972 -86.81379 7578 ft 260 kts 147°
2026-04-23 22:39 33.87487 -86.80150 7241 ft 258 kts 147°
2026-04-23 22:40 33.86009 -86.78928 6896 ft 258 kts 147°
2026-04-23 22:40 33.84526 -86.77705 6556 ft 258 kts 147°
2026-04-23 22:40 33.81746 -86.75412 5880 ft 258 kts 147°
2026-04-23 22:41 33.80265 -86.74192 5523 ft 258 kts 147°
2026-04-23 22:41 33.78789 -86.72977 5181 ft 257 kts 147°
2026-04-23 22:41 33.77312 -86.71761 4821 ft 257 kts 146°
2026-04-23 22:41 33.75844 -86.70552 4461 ft 253 kts 146°
2026-04-23 22:42 33.74441 -86.69397 4324 ft 236 kts 147°
2026-04-23 22:42 33.73129 -86.68317 4190 ft 220 kts 147°
2026-04-23 22:42 33.71906 -86.67311 4096 ft 209 kts 147°
2026-04-23 22:42 33.70734 -86.66349 4054 ft 198 kts 147°
2026-04-23 22:43 33.69628 -86.65440 3957 ft 189 kts 147°
2026-04-23 22:43 33.68560 -86.64563 3821 ft 185 kts 148°
2026-04-23 22:43 33.67500 -86.63695 3636 ft 184 kts 147°
2026-04-23 22:43 33.66426 -86.62816 3454 ft 189 kts 149°
2026-04-23 22:44 33.65215 -86.62408 3122 ft 180 kts 191°
2026-04-23 22:44 33.64156 -86.63141 2888 ft 176 kts 219°
2026-04-23 22:44 33.63215 -86.64105 2601 ft 178 kts 225°
2026-04-23 22:44 33.62411 -86.65203 2398 ft 174 kts 229°
2026-04-23 22:45 33.61685 -86.66353 2153 ft 172 kts 233°
2026-04-23 22:45 33.61016 -86.67512 1922 ft 166 kts 233°
2026-04-23 22:45 33.60375 -86.68631 1738 ft 160 kts 233°
2026-04-23 22:45 33.59765 -86.69694 1569 ft 147 kts 233°
2026-04-23 22:46 33.59218 -86.70649 1350 ft 134 kts 233°
2026-04-23 22:46 33.58691 -86.71564 1203 ft 135 kts 233°
2026-04-23 22:46 33.58150 -86.72521 1007 ft 138 kts 233°
2026-04-23 22:46 33.57604 -86.73466 774 ft 138 kts 233°
2026-04-23 22:47 33.57072 -86.74397 619 ft 133 kts 232°
2026-04-23 22:47 33.56633 -86.75156 617 ft 80 kts 235°
2026-04-23 22:47 33.56418 -86.75521 615 ft 30 kts 234°
2026-04-23 22:47 33.56308 -86.75719 612 ft 28 kts 235°
2026-04-23 22:48 33.56206 -86.75836 623 ft 17 kts 206°
2026-04-23 22:48 33.56121 -86.75867 612 ft 9 kts 147°
2026-04-23 22:48 33.56130 -86.75818 615 ft 7 kts 56°
2026-04-23 22:48 33.56186 -86.75721 612 ft 15 kts 66°
2026-04-23 22:49 33.56153 -86.75637 612 ft 12 kts 93°
2026-04-23 22:49 33.56191 -86.75553 613 ft 11 kts 56°
2026-04-23 22:49 33.56237 -86.75476 616 ft 11 kts 55°
2026-04-23 22:49 33.56280 -86.75400 616 ft 11 kts 55°
2026-04-23 22:50 33.56321 -86.75334 614 ft 2 kts 28°
2026-04-23 22:50 33.56323 -86.75354 617 ft 7 kts 224°
2026-04-23 22:50 33.56260 -86.75417 620 ft 12 kts 208°
2026-04-23 22:50 33.56177 -86.75414 616 ft 8 kts 167°
2026-04-23 22:51 33.56169 -86.75411 615 ft 0 kts 167°